Location: Unspecified
(48.8656°N, 0.0000°E)
Time: 03:42:38
(UTC+00:00)

Vanguard 3 - Pass Details

Date: 22 June 2019
Orbit: 507 x 3264 km, 33.4° (Epoch: 17 July)

Event Time Altitude Azimuth Distance (km) Brightness Sun altitude
Rises 09:49:10 0° 209° (SSW) 6,658 11.8 53.6°
Reaches altitude 10° 09:56:04 10° 194° (SSW) 5,144 11.5 54.5°
Maximum altitude 10:04:02 18° 159° (SSE) 3,813 11.4 55.6°
Drops below altitude 10° 10:10:04 10° 122° (ESE) 3,744 11.3 56.4°
Sets 10:13:52 0° 104° (ESE) 4,273 11.3 56.8°
